Content
SEND FEEDBACK

Daily
Averages
Monthly
Summary
United States of America

ENKA, NORTH CAROLINA


Home > North America > United States > North Carolina
Elevation: 2122 feet     Latitude: 35 33N     Longitude: 082 39W

WEATHER
 
SELECT A DAY
Number of Records: 225,765;   Date Range: 1/1/95 - 7/27/14
 
SHARE

PRINT THIS DATA

[ ← Previous Day ]
WEATHER ALMANAC - FEBRUARY 22, 2013
[ Next Day → ]
[ °C ]   °F
Weather ElementAverageHighLow
Temperature37 °F39.9 °F (3:54 pm)35.1 °F (5:49 am)
Dewpoint35.4 °F37.9 °F (3:54 pm)32 °F (10:01 am)
Humidity94.1 %100 % (12:50 pm)86 % (11:54 am)
Barometer30.15 in30.22 in (8:54 am)30.06 in (10:09 pm)
Wind Speed6.7 mph12.7 mph (2:54 am)
Weather ElementAverage
Visibility6.1 mi
Wind DirectionSSE (155.5 °)

Weather ElementTotal
Precipitation0.36 in
Heating Degree Days27.5 (Base 65)
Averaged from 53 records on February 22, 2013
WEATHER CONDITIONS BREAKOUT
WIND DIRECTION BREAKOUT
WEATHER BY HOUR - FEBRUARY 22, 2013
[ °C ]   °F
Local TimeTemperatureDewpointHumidityBarometerVisibilityWind DirectionWind SpeedGust SpeedPrecipitationEventsConditions
1:54 AM37.0 °F36.0 °F96 %30.21 in10.0 miSSE (150°)6.9 mph0.06 inRainLight Rain
2:23 AM37.4 °F35.6 °F93 %30.19 in8.0 miSouth (180°)8.1 mph0.03 inRainLight Rain
2:32 AM37.4 °F35.6 °F93 %30.20 in9.0 miVariable3.5 mph0.03 inRainLight Rain
2:54 AM37.0 °F35.1 °F93 %30.18 in8.0 miSSE (160°)12.7 mph0.04 inRainLight Rain
3:54 AM36.0 °F35.1 °F97 %30.14 in10.0 miSouth (170°)8.1 mph0.06 inRainLight Rain
4:54 AM36.0 °F34.0 °F93 %30.16 in10.0 miSSE (160°)8.1 mph0.01 inRainLight Rain
5:10 AM35.6 °F33.8 °F93 %30.16 in6.0 miSSE (160°)9.2 mph0.02 inRainLight Rain
5:41 AM35.6 °F33.8 °F93 %30.19 in4.0 miSSE (160°)8.1 mph0.03 inRainLight Rain
5:48 AM35.6 °F33.8 °F93 %30.19 in4.0 miSSE (150°)8.1 mph0.04 inRainLight Rain
5:49 AM35.1 °F34.0 °F96 %30.20 in5.0 miSSE (150°)6.9 mph0.04 inRainLight Rain
6:21 AM35.6 °F33.8 °F93 %30.20 in10.0 miSSE (160°)9.2 mph0.00 inOvercast
6:54 AM35.1 °F33.1 °F92 %30.21 in10.0 miSSE (160°)6.9 mph0.00 inOvercast
7:02 AM35.6 °F33.8 °F93 %30.20 in10.0 miSouth (170°)5.8 mphOvercast
7:41 AM35.6 °F33.8 °F93 %30.20 in10.0 miSSW (200°)4.6 mphOvercast
7:54 AM35.1 °F33.1 °F92 %30.19 in10.0 miSouth (190°)5.8 mphOvercast
8:47 AM35.6 °F33.8 °F93 %30.21 in10.0 miSouth (180°)5.8 mphOvercast
8:54 AM36.0 °F33.1 °F89 %30.22 in10.0 miSouth (190°)6.9 mphOvercast
9:54 AM36.0 °F33.1 °F89 %30.22 in10.0 miSouth (170°)5.8 mphOvercast
10:01 AM35.6 °F32.0 °F87 %30.21 in10.0 miSouth (180°)6.9 mphOvercast
10:28 AM35.6 °F33.8 °F93 %30.20 in10.0 miSouth (180°)6.9 mphOvercast
10:44 AM35.6 °F33.8 °F93 %30.20 in10.0 miSouth (170°)6.9 mphOvercast
10:54 AM36.0 °F33.1 °F89 %30.22 in10.0 miSouth (170°)6.9 mphOvercast
11:08 AM35.6 °F33.8 °F93 %30.20 in10.0 miSSE (160°)9.2 mphOvercast
11:26 AM35.6 °F33.8 °F93 %30.19 in10.0 miSSE (150°)8.1 mphOvercast
11:54 AM37.0 °F33.1 °F86 %30.19 in10.0 miSSE (160°)8.1 mphOvercast
12:50 PM35.6 °F35.6 °F100 %30.16 in2.5 miSouth (170°)5.8 mphOvercast
12:54 PM37.0 °F35.1 °F93 %30.18 in2.5 miSouth (170°)5.8 mphOvercast
1:01 PM37.4 °F35.6 °F93 %30.16 in2.5 miSouth (180°)4.6 mphOvercast
1:07 PM37.4 °F35.6 °F93 %30.15 in3.0 miSouth (170°)4.6 mphOvercast
1:33 PM37.4 °F35.6 °F93 %30.15 in2.0 miESE (120°)5.8 mphOvercast
1:46 PM37.4 °F35.6 °F93 %30.14 in3.0 miSE (130°)6.9 mphOvercast
1:54 PM37.0 °F35.1 °F93 %30.16 in4.0 miVariable4.6 mphOvercast
2:20 PM37.4 °F35.6 °F93 %30.13 in4.0 miSE (130°)3.5 mphOvercast
2:54 PM37.9 °F37.0 °F97 %30.13 in3.0 miESE (120°)5.8 mphOvercast
3:54 PM39.9 °F37.9 °F93 %30.12 in9.0 miSE (130°)4.6 mphOvercast
4:03 PM39.2 °F37.4 °F93 %30.10 in2.5 miSSE (150°)4.6 mphOvercast
4:54 PM39.9 °F37.9 °F93 %30.11 in2.5 miSE (130°)4.6 mphOvercast
5:01 PM39.2 °F37.4 °F93 %30.08 in10.0 miESE (120°)6.9 mphOvercast
5:54 PM39.9 °F37.9 °F93 %30.10 in10.0 miSouth (170°)8.1 mphOvercast
6:46 PM39.2 °F37.4 °F93 %30.09 in5.0 miSouth (180°)8.1 mphOvercast
6:54 PM39.0 °F37.9 °F96 %30.11 in2.0 miSouth (170°)5.8 mphOvercast
7:01 PM39.2 °F37.4 °F93 %30.09 in3.0 miSouth (180°)8.1 mphOvercast
7:54 PM37.9 °F37.0 °F97 %30.11 in2.0 miSSE (160°)6.9 mphOvercast
8:01 PM37.4 °F37.4 °F100 %30.09 in7.0 miSouth (170°)8.1 mphOvercast
8:47 PM37.4 °F37.4 °F100 %30.09 in2.5 miSouth (170°)5.8 mphOvercast
8:54 PM37.9 °F37.0 °F97 %30.12 in3.0 miSouth (170°)8.1 mphOvercast
9:02 PM37.4 °F37.4 °F100 %30.09 in1.0 miSouth (170°)8.1 mphOvercast
9:54 PM37.0 °F36.0 °F96 %30.10 in1.0 miSSE (150°)6.9 mphOvercast
10:01 PM37.4 °F35.6 °F93 %30.07 in2.5 miSouth (170°)6.9 mphOvercast
10:09 PM37.4 °F37.4 °F100 %30.06 in1.0 miSSE (160°)6.9 mphOvercast
10:54 PM37.0 °F37.0 °F100 %30.09 in1.0 miSSE (160°)5.8 mphOvercast
11:01 PM37.4 °F37.4 °F100 %30.07 in3.0 miSSE (160°)4.6 mphOvercast
11:54 PM37.0 °F37.0 °F100 %30.09 in3.0 miSSE (150°)6.9 mphOvercast
Hourly data recorded from KAVL, located miles away from Enka, North Carolina







STORIES FROM OUR PARTNERS